ELECTRON KICK STAGE R/B, 63359

Orbit data source: Space-Track

ELECTRON KICK STAGE R/B, 63359 is space debris in SSO originally from a launch on Wed, 26 Mar 2025 UTC launched from the Rocket Lab Launch Complex (RLLC). Debris objects in space refer to the collection of defunct objects orbiting the Earth. Examples of debris include non-operational satellites, rocket bodies, and fragments generated from explosions, collisions, or faulty payload assembly.

Loading next visibility...
Identifier
63359, 2025-061J
Orbit
SSO
Country
Flag of USUS
Related business
Manufacturer
Rocket Lab
Mission
Spacecraft
Bus & Motor
ELECTRON ST2, Unknown motor
Mass
250 kg wet, ~250 kg dry
Launch date (UTC)
2025-03-26 (7 months ago)
Launch vehicle
Unknown
Launch site
Rocket Lab Launch Complex (RLLC)
Object type
Payload
Rocket body
Debris
Shape & HBR
Cyl, 1.1 m
Radar Cross Section
2.827 m², Medium (>0.1 m² and < 1m²)

Expand to show TLE details & history
Last TLE update: 11 hours ago

TLE from 11 hours ago
0 ELECTRON KICK STAGE R/B
1 63359U 25061J   25309.88418177  .00019093  00000-0  72207-3 0  9996
2 63359  97.5346 286.7484 0041582 229.7859 129.9738 15.26181886 34117
Epoch: 2025-11-05T21:13Z
TLE epoch observation values (Epoch: 2025-11-05T21:13:13.304Z)
Latitude
-0.00004°
Longitude
-76.90748°
Altitude
508.747 km
Speed
7.599 km/s
True Right ascension
19h 06m 59s
True Declination
0° 00' 00"
Sunlit
Object was in daylight at epoch
Visualization orbit readout
Latitude
Unknown
Longitude
Unknown
Altitude
Unknown
Speed
Unknown
Apparent Right ascension
Unknown
Apparent Declination
Unknown
Sunlit
N/A
Visualization observer readout
Local Sidereal Time
04:00:11
Azimuth
Unknown
Elevation
Unknown
Doppler factor
Unknown
Orbital elements
Apogee altitude
512.737 km
Perigee altitude
455.667 km
Semi-major axis
6,862.339 km
Eccentricity
0.00416
Inclination
97.5346°
RAAN
286.7484°
Arg. of periapsis
229.7859°
True anomaly
130.33774°
Mean anomaly
129.9738°
Eccentric anomaly
130.15589°
Mean motion
3.81799 °/min
Orbital period
94.29 mins
BSTAR
0.00072207
Loading maneuver chart data...
Computing Atmospheric mass density...
Loading historical data...
Loading historical data...
Loading historical data...
Loading historical data...
Loading historical data...
Loading historical data...
Loading historical data...

Documentation

Showing up to 5 results
|